This demonstration page uses our WeatherBlox Daily Observations layout. Learn more.

Left ArrowRight Arrow

Hourly Observations for January 26, 2020

Temp ( °F °C ) Dew Point ( °F °C ) Humidity (%) Winds ( mph kmh ) Pressure ( in mb ) Visibility ( mi km ) Precip ( " mm )
12:53 am 00:53 Mostly Cloudy 33 0.6 30 -1.1 89 89 WNW 8 13 30.03 1017 10 16 0.00 0.00
1:53 am 01:53 Mostly Cloudy 33 0.6 29 -1.7 85 85 W 7 11 30.02 1017 10 16 0.00 0.00
2:53 am 02:53 Clear 32 0 29 -1.7 88 88 WNW 7 11 30.03 1017 10 16 0.00 0.00
3:53 am 03:53 Mostly Clear 34 1.1 29 -1.7 82 82 WNW 9 15 30.03 1017 10 16 0.00 0.00
4:53 am 04:53 Mostly Clear 33 0.6 28 -2.2 82 82 W 5 7 30.01 1016 10 16 0.00 0.00
5:53 am 05:53 Clear 32 0 28 -2.2 85 85 W 5 7 30.02 1017 10 16 0.00 0.00
6:53 am 06:53 Clear 33 0.6 28 -2.2 82 82 WNW 9 15 30.04 1017 10 16 0.00 0.00
7:53 am 07:53 Sunny 33 0.6 28 -2.2 82 82 WNW 8 13 30.05 1018 10 16 0.00 0.00
8:53 am 08:53 Sunny 32 0 28 -2.2 85 85 WNW 6 9 30.05 1018 10 16 0.00 0.00
9:53 am 09:53 Sunny 38 3.3 31 -0.6 76 76 WNW 8 13 30.05 1018 10 16 0.00 0.00
10:53 am 10:53 Sunny 40 4.4 32 0 73 73 W 9 15 30.06 1018 10 16 0.00 0.00
11:53 am 11:53 Sunny 42 5.6 33 0.6 71 71 W 6 9 30.04 1017 10 16 0.00 0.00
12:53 pm 12:53 Sunny 44 6.7 34 1.1 68 68 WNW 3 6 30.01 1016 10 16 0.00 0.00
1:53 pm 13:53 Sunny 46 7.8 36 2.2 68 68 Calm 29.98 1015 10 16 0.00 0.00
2:53 pm 14:53 Cloudy 47 8.3 35 1.7 63 63 W 5 7 29.98 1015 10 16 0.00 0.00
3:53 pm 15:53 Mostly Cloudy 46 7.8 37 2.8 71 71 W 3 6 29.97 1015 10 16 0.00 0.00
4:53 pm 16:53 Mostly Cloudy 46 7.8 37 2.8 71 71 WSW 3 6 29.96 1015 10 16 0.00 0.00
5:53 pm 17:53 Clear 40 4.4 35 1.7 83 83 W 6 9 29.98 1015 10 16 0.00 0.00
6:53 pm 18:53 Clear 37 2.8 32 0 82 82 NNW 5 7 30.00 1016 10 16 0.00 0.00
7:53 pm 19:53 Clear 34 1.1 29 -1.7 82 82 undefined N/A 30.01 1016 10 16 0.00 0.00
8:53 pm 20:53 Clear 35 1.7 29 -1.7 78 78 undefined N/A 30.01 1016 10 16 0.00 0.00
9:53 pm 21:53 Clear 32 0 28 -2.2 85 85 undefined N/A 30.01 1016 10 16 0.00 0.00
10:53 pm 22:53 Clear 30 -1.1 27 -2.8 88 88 Calm 30.00 1016 10 16 0.00 0.00
11:53 pm 23:53 Clear 28 -2.2 25 -3.9 88 88 Calm 30.03 1017 10 16 0.00 0.00

Powered by AerisWeather